{"data":{"norad_id":46036,"intl_designator":"2020-055K","name":"STARLINK-1560","alt_names":[],"object_type":"PAYLOAD","status":"ACTIVE","operator":null,"country":"US","launch_date":"2020-08-07","launch_site_code":"AFETR","launch_vehicle":null,"mission":null,"orbit_class":"UNKNOWN","rcs_meters":null,"size_class":null,"mass_kg":null,"dimensions":null,"purposes":["comms"],"wikipedia_slug":null,"has_3d_model":false,"image_url":null,"decayed_at":null,"tle_current":{"epoch":"2026-05-25T05:23:58.774848Z","epoch_age_seconds":62486,"freshness":"FRESH","line1":"1 46036U 20055K   26145.22498582  .00000237  00000+0  20129-4 0  9998","line2":"2 46036  53.1607 131.2165 0001520 105.2740 254.8429 15.30189983320612","mean_motion":15.30189983,"eccentricity":0.000152,"inclination_deg":53.1607,"raan_deg":131.2165,"arg_perigee_deg":105.274,"mean_anomaly_deg":254.8429,"bstar":2.0129e-5,"rev_number":32061,"period_min":94.105961743183,"perigee_km":474.20326447817,"apogee_km":476.28669259964,"semimajor_km":6853.3819785389,"source":"CELESTRAK","updated_at":"2026-05-25T13:38:16.459804Z"}}}